When you browse on this site, cookies collect data to enhance your experience and personalize the content and advertising you see.
Visit our Privacy Policy to learn more. By continuing to use the site, you agree to this use of cookies and data.
  • In United Kingdom
  • List of Countries
  • For 7 days
  • Water Temperature
  • Satellite Maps
  • Weather Map
  • Weather Widgets
  • user-avatar
    Login

    Hourly Weather Kalat

    Today, 24 March, Sunday

    Time Temperature Precipitation Wind Pressure Humidity
    00:00 -14°C° 0 mm 1 mps 466 mmHg 77%
    01:00 -14°C° 0 mm 1 mps 466 mmHg 71%
    02:00 -16°C° 0 mm 2 mps 466 mmHg 65%
    03:00 -17°C° 0 mm 2 mps 466 mmHg 61%
    04:00 -17°C° 0 mm 2 mps 466 mmHg 57%
    05:00 -17°C° 0 mm 2 mps 465 mmHg 52%
    06:00 -16°C° 0 mm 2 mps 467 mmHg 53%
    07:00 -14°C° 0 mm 2 mps 468 mmHg 54%
    08:00 -13°C° 0 mm 2 mps 469 mmHg 55%
    09:00 -10°C° 0 mm 2 mps 470 mmHg 48%
    10:00 -7°C° 0 mm 1 mps 471 mmHg 42%
    11:00 -4°C° 0 mm 1 mps 472 mmHg 32%
    12:00 -4°C° 0.1 mm 1 mps 472 mmHg 38%
    13:00 -5°C° 0.1 mm 2 mps 473 mmHg 43%
    14:00 -5°C° 0.1 mm 2 mps 473 mmHg 49%
    15:00 -5°C° 0.1 mm 2 mps 473 mmHg 54%
    16:00 -6°C° 0.1 mm 2 mps 472 mmHg 59%
    17:00 -7°C° 0 mm 2 mps 471 mmHg 64%
    18:00 -9°C° 0 mm 2 mps 469 mmHg 66%
    19:00 -10°C° 0 mm 1 mps 468 mmHg 67%
    20:00 -13°C° 0 mm 1 mps 466 mmHg 69%
    21:00 -13°C° 0 mm 1 mps 466 mmHg 67%
    22:00 -14°C° 0 mm 1 mps 466 mmHg 65%
    23:00 -14°C° 0 mm 1 mps 466 mmHg 64%

    Tomorrow, 25 March, Monday

    Time Temperature Precipitation Wind Pressure Humidity
    00:00 -16°C° 0 mm 2 mps 466 mmHg 62%
    01:00 -17°C° 0 mm 2 mps 466 mmHg 61%
    02:00 -17°C° 0 mm 2 mps 466 mmHg 60%
    03:00 -17°C° 0 mm 2 mps 466 mmHg 56%
    04:00 -17°C° 0 mm 2 mps 466 mmHg 53%
    05:00 -16°C° 0 mm 1 mps 466 mmHg 50%
    06:00 -14°C° 0 mm 1 mps 467 mmHg 47%
    07:00 -13°C° 0 mm 1 mps 468 mmHg 44%
    08:00 -11°C° 0 mm 1 mps 470 mmHg 41%
    09:00 -9°C° 0 mm 1 mps 471 mmHg 34%
    10:00 -7°C° 0 mm 1 mps 472 mmHg 27%
    11:00 -4°C° 0 mm 1 mps 473 mmHg 19%
    12:00 -3°C° 0 mm 1 mps 473 mmHg 22%
    13:00 -2°C° 0 mm 1 mps 474 mmHg 25%
    14:00 -2°C° 0 mm 1 mps 474 mmHg 29%
    15:00 -2°C° 0 mm 1 mps 474 mmHg 36%
    16:00 -4°C° 0 mm 2 mps 473 mmHg 44%
    17:00 -5°C° 0 mm 2 mps 473 mmHg 51%
    18:00 -6°C° 0 mm 1 mps 471 mmHg 50%
    19:00 -9°C° 0 mm 1 mps 470 mmHg 48%
    20:00 -11°C° 0 mm 1 mps 468 mmHg 47%
    21:00 -12°C° 0 mm 1 mps 468 mmHg 44%
    22:00 -12°C° 0 mm 1 mps 468 mmHg 41%
    23:00 -14°C° 0 mm 2 mps 468 mmHg 39%

    Day after tomorrow, 26 March, Tuesday

    Time Temperature Precipitation Wind Pressure Humidity
    00:00 -12°C° 0 mm 1 mps 468 mmHg 36%
    01:00 -12°C° 0 mm 1 mps 468 mmHg 33%
    02:00 -12°C° 0 mm 1 mps 468 mmHg 31%
    03:00 -12°C° 0 mm 1 mps 468 mmHg 29%
    04:00 -12°C° 0 mm 1 mps 468 mmHg 27%
    05:00 -11°C° 0 mm 1 mps 468 mmHg 26%
    06:00 -10°C° 0 mm 1 mps 470 mmHg 29%
    07:00 -8°C° 0 mm 1 mps 471 mmHg 33%
    08:00 -6°C° 0 mm 1 mps 473 mmHg 37%
    09:00 -3°C° 0 mm 1 mps 474 mmHg 37%
    10:00 -1°C° 0 mm 1 mps 475 mmHg 37%
    11:00 +1°C° 0 mm 1 mps 476 mmHg 37%
    12:00 +2°C° 0 mm 1 mps 477 mmHg 43%
    13:00 +3°C° 0 mm 1 mps 477 mmHg 48%
    14:00 +3°C° 0 mm 1 mps 477 mmHg 53%
    15:00 +3°C° 0 mm 1 mps 477 mmHg 54%
    16:00 +3°C° 0 mm 1 mps 477 mmHg 55%
    17:00 +2°C° 0 mm 1 mps 476 mmHg 55%
    18:00 0°C° 0 mm 1 mps 475 mmHg 56%
    19:00 -1°C° 0 mm 1 mps 474 mmHg 56%
    20:00 -3°C° 0 mm 1 mps 473 mmHg 57%
    21:00 -3°C° 0 mm 1 mps 473 mmHg 55%
    22:00 -6°C° 0 mm 2 mps 473 mmHg 53%
    23:00 -6°C° 0 mm 2 mps 473 mmHg 51%

    27 March, Wednesday

    Time Temperature Precipitation Wind Pressure Humidity
    00:00 -5°C° 0 mm 2 mps 473 mmHg 51%
    01:00 -6°C° 0 mm 3 mps 473 mmHg 51%
    02:00 -6°C° 0 mm 3 mps 473 mmHg 51%
    03:00 -6°C° 0 mm 3 mps 473 mmHg 50%
    04:00 -6°C° 0 mm 2 mps 473 mmHg 50%
    05:00 -6°C° 0 mm 2 mps 473 mmHg 49%
    06:00 -5°C° 0 mm 2 mps 474 mmHg 52%
    07:00 -3°C° 0 mm 2 mps 475 mmHg 55%
    08:00 -2°C° 0 mm 3 mps 476 mmHg 58%
    09:00 -1°C° 0 mm 3 mps 477 mmHg 63%
    10:00 0°C° 0 mm 3 mps 478 mmHg 68%
    11:00 +1°C° 0 mm 4 mps 478 mmHg 73%
    12:00 +1°C° 0.2 mm 4 mps 478 mmHg 76%
    13:00 +1°C° 0.2 mm 4 mps 478 mmHg 79%
    14:00 +1°C° 0.2 mm 4 mps 478 mmHg 82%
    15:00 0°C° 0.3 mm 4 mps 478 mmHg 81%
    16:00 0°C° 0.3 mm 4 mps 478 mmHg 81%
    17:00 +1°C° 0.3 mm 3 mps 478 mmHg 80%
    18:00 0°C° 0.3 mm 3 mps 477 mmHg 81%
    19:00 -1°C° 0.3 mm 3 mps 477 mmHg 82%
    20:00 -2°C° 0.3 mm 3 mps 477 mmHg 83%
    21:00 -2°C° 0.1 mm 3 mps 476 mmHg 83%
    22:00 -4°C° 0.1 mm 3 mps 476 mmHg 83%
    23:00 -4°C° 0.1 mm 3 mps 476 mmHg 83%

    28 March, Thursday

    Time Temperature Precipitation Wind Pressure Humidity
    00:00 -5°C° 0 mm 3 mps 475 mmHg 83%
    01:00 -5°C° 0 mm 4 mps 475 mmHg 83%
    02:00 -7°C° 0 mm 4 mps 474 mmHg 83%
    03:00 -7°C° 0 mm 4 mps 474 mmHg 83%
    04:00 -7°C° 0 mm 4 mps 474 mmHg 82%
    05:00 -5°C° 0 mm 4 mps 474 mmHg 82%
    06:00 -5°C° 0 mm 3 mps 475 mmHg 82%
    07:00 -4°C° 0 mm 3 mps 476 mmHg 81%
    08:00 -2°C° 0 mm 3 mps 477 mmHg 81%
    09:00 -1°C° 0 mm 2 mps 477 mmHg 80%
    10:00 +1°C° 0 mm 2 mps 478 mmHg 80%
    11:00 +2°C° 0 mm 2 mps 479 mmHg 79%
    12:00 +2°C° 0.3 mm 2 mps 478 mmHg 79%
    13:00 +2°C° 0.3 mm 2 mps 478 mmHg 79%
    14:00 +2°C° 0.3 mm 2 mps 478 mmHg 79%
    15:00 +2°C° 0.4 mm 2 mps 477 mmHg 76%
    16:00 +3°C° 0.4 mm 1 mps 477 mmHg 73%
    17:00 +2°C° 0.4 mm 1 mps 477 mmHg 70%
    18:00 +1°C° 0.1 mm 1 mps 475 mmHg 73%
    19:00 -3°C° 0.1 mm 2 mps 474 mmHg 75%
    20:00 -5°C° 0.1 mm 2 mps 473 mmHg 77%
    21:00 -5°C° 0 mm 2 mps 473 mmHg 78%
    22:00 -7°C° 0 mm 3 mps 473 mmHg 80%
    23:00 -7°C° 0 mm 3 mps 473 mmHg 81%

    29 March, Friday

    Time Temperature Precipitation Wind Pressure Humidity
    00:00 -7°C° 0 mm 3 mps 472 mmHg 81%
    01:00 -7°C° 0 mm 3 mps 472 mmHg 81%
    02:00 -7°C° 0 mm 3 mps 472 mmHg 80%
    03:00 -7°C° 0 mm 3 mps 472 mmHg 78%
    04:00 -7°C° 0 mm 3 mps 472 mmHg 76%
    05:00 -7°C° 0 mm 3 mps 472 mmHg 74%
    06:00 -7°C° 0 mm 3 mps 472 mmHg 75%
    07:00 -6°C° 0 mm 3 mps 473 mmHg 76%
    08:00 -5°C° 0 mm 3 mps 474 mmHg 76%
    09:00 -4°C° 0 mm 3 mps 475 mmHg 75%
    10:00 -2°C° 0 mm 3 mps 475 mmHg 73%
    11:00 0°C° 0 mm 3 mps 476 mmHg 72%
    12:00 0°C° 0.3 mm 3 mps 476 mmHg 73%
    13:00 0°C° 0.3 mm 3 mps 475 mmHg 75%
    14:00 0°C° 0.3 mm 3 mps 475 mmHg 77%
    15:00 -2°C° 0.5 mm 4 mps 475 mmHg 79%
    16:00 -2°C° 0.5 mm 4 mps 475 mmHg 80%
    17:00 -2°C° 0.5 mm 4 mps 474 mmHg 81%
    18:00 -3°C° 0.2 mm 4 mps 474 mmHg 82%
    19:00 -4°C° 0.2 mm 4 mps 474 mmHg 83%
    20:00 -4°C° 0.2 mm 4 mps 474 mmHg 83%
    21:00 -4°C° 0.2 mm 4 mps 474 mmHg 83%
    22:00 -5°C° 0.2 mm 4 mps 475 mmHg 84%
    23:00 -5°C° 0.2 mm 4 mps 475 mmHg 84%
    Show more